OBJECT F, 57429

Orbit data source: Space-Track

You're viewing an Uncataloged Satellite

Recently launched and/or uncataloged satellites may have evolving metadata. Metadata may include but not limited to: Owner, Maufacturer, Bus, Motor, and Mission.

OBJECT F, 57429 is a Chinese satellite in SSO that was launched on Sun, 23 Jul 2023 UTC via a CHANG ZHENG 2D launch vehicle from the Taiyaun Space Center, China (TSC). Unknown objects in Earth's orbit typically refer to objects detected orbiting the Earth but have not yet been identified or cataloged. These objects could be anything from previously untracked satellites, spent rocket stages, debris from satellite collisions, or even natural meteoroids temporarily captured by Earth's gravity.

Loading next visibility...
Identifier
57429, 2023-104F
Orbit
SSO
Country
Flag of CNCN / PRC
Related business
None
Manufacturer
Unknown
Mission
Commercial Communications
Bus & Motor
Unknown
Mass
Unknown
Launch date (UTC)
2023-07-23 (2 years ago)
Launch vehicle
CHANG ZHENG 2D
Launch site
Taiyaun Space Center, China (TSC)
Object type
Unknown
Shape & HBR
Box + 1 Pan, 5.0 m
Radar Cross Section
16.383 m², Medium (>0.1 m² and < 1m²)

Expand to show TLE details & history
Last TLE update: 7 hours ago

TLE from 7 hours ago
0 OBJECT F
1 57429U 23104F   25310.93198159  .00028306  00000-0  65223-3 0  9993
2 57429  97.2880  18.6574 0024586 128.1885 232.1582 15.42236769128090
Epoch: 2025-11-06T22:22Z
TLE epoch observation values (Epoch: 2025-11-06T22:22:03.209Z)
Latitude
-0.00003°
Longitude
-3.23918°
Altitude
452.944 km
Speed
7.635 km/s
True Right ascension
01h 14m 37s
True Declination
0° 00' 00"
Sunlit
Object was in full shadow at epoch
Visualization orbit readout
Latitude
Unknown
Longitude
Unknown
Altitude
Unknown
Speed
Unknown
Apparent Right ascension
Unknown
Apparent Declination
Unknown
Sunlit
N/A
Visualization observer readout
Local Sidereal Time
01:52:47
Azimuth
Unknown
Elevation
Unknown
Doppler factor
Unknown
Orbital elements
Apogee altitude
453.195 km
Perigee altitude
419.686 km
Semi-major axis
6,814.578 km
Eccentricity
0.00246
Inclination
97.288°
RAAN
18.6574°
Arg. of periapsis
128.1885°
True anomaly
231.93613°
Mean anomaly
232.1582°
Eccentric anomaly
232.04712°
Mean motion
3.8582 °/min
Orbital period
93.31 mins
BSTAR
0.00065223
Loading maneuver chart data...
Computing Atmospheric mass density...
Loading historical data...
Loading historical data...
Loading historical data...
Loading historical data...
Loading historical data...
Loading historical data...
Loading historical data...
Other satellites on launch #104 in the year 2023 (2023-07-23 UTC)

Documentation

Showing up to 5 results
|